User: anonymous   Login
Location: Milton Keynes
(52.0316°N, 0.7531°W)
Time: 13:58:34
(UTC+01:00)
Language:

Genesis I - Orbit

View from above orbital plane
View from above orbital plane
View from above satellite
View from above satellite

Ground track
Ground track

The orbit data is extracted from the following two-line orbital elements,

1 29252U 06029A   19110.91168914 +.00000578 +00000-0 +38037-4 0  9993
2 29252 064.5040 246.6645 0052121 247.6926 111.8667 15.17662772703814
Epoch (UTC): 20 April 2019 21:52:49
Eccentricity: 0.0052121
inclination: 64.5040°
perigee height: 477 km
apogee height: 549 km
right ascension of ascending node: 246.6645°
argument of perigee: 247.6926°
revolutions per day: 15.17662772
mean anomaly at epoch: 111.8667°
orbit number at epoch: 70381

The dashed part of the orbit path shows where the satellite is in the earth's shadow,  

DLR